Location: Penzberg
(47.7615°N, 11.3159°E)
Time: 05:31:58
(UTC+01:00)

ISS - Pass Details

Date: 18 November 2017
Orbit: 401 x 407 km, 51.6° (Epoch: 18 November)

Event Time Altitude Azimuth Distance (km) Brightness Sun altitude
Exits shadow 05:31:23 13° 195° (SSW) 1,257 -1.4 -18.8°
Drops below altitude 10° 05:32:13 10° 182° (S) 1,447 -1.0 -18.7°
Sets 05:34:48 0° 160° (SSE) 2,301 0.4 -18.3°
